Location: Caltech
(34.1382°N, 118.1253°W)
Time: 03:31:14
(UTC-08:00)

Gbstr 26 Del rocket - Visible Passes

Search period start: 20 December 2014 00:00
Search period end: 30 December 2014 00:00
Orbit: 494 x 1274 km, 51.8° (Epoch: 18 December)

Date Brightness Start Highest point End Pass type
(mag) Time Alt. Az. Time Alt. Az. Time Alt. Az.
20 Dec 5.7 17:55:00 10° W 18:01:51 32° NNW 18:08:13 13° NE visible
20 Dec 6.1 19:45:52 10° NW 19:50:53 21° N 19:50:53 21° N visible
21 Dec 5.8 17:52:34 10° WNW 17:59:11 29° NNW 18:05:28 12° NE visible
21 Dec 6.1 19:43:18 10° NW 19:48:08 21° N 19:48:08 21° N visible
22 Dec 5.9 17:50:09 10° WNW 17:56:32 26° NNW 18:02:42 12° NE visible
22 Dec 6.1 19:40:40 10° NW 19:45:22 21° N 19:45:22 21° N visible
23 Dec 5.9 17:47:45 10° WNW 17:53:56 24° NNW 17:59:57 11° NE visible
23 Dec 6.0 19:37:57 10° NW 19:42:36 22° N 19:42:36 22° N visible
24 Dec 6.0 17:45:19 10° WNW 17:51:20 23° N 17:57:11 11° NE visible
24 Dec 6.0 19:35:09 10° NW 19:39:51 23° N 19:39:51 23° N visible
25 Dec 6.0 17:42:52 10° NW 17:48:45 22° N 17:54:27 11° NE visible
25 Dec 5.9 19:32:18 10° NW 19:37:07 24° N 19:37:07 24° N visible
26 Dec 6.0 17:40:22 10° NW 17:46:10 21° N 17:51:45 11° NE visible
26 Dec 5.8 19:29:23 10° NW 19:34:25 26° N 19:34:25 26° N visible
26 Dec 7.0 21:17:00 10° NW 21:17:05 10° NW 21:17:05 10° NW visible
27 Dec 5.9 17:37:48 10° NW 17:43:36 21° N 17:49:05 11° NE visible
27 Dec 5.6 19:26:26 10° NW 19:31:45 29° N 19:31:45 29° N visible
27 Dec 6.9 21:14:00 10° NW 21:14:26 12° NW 21:14:26 12° NW visible
28 Dec 5.9 17:35:10 10° NW 17:41:01 22° N 17:46:29 11° NE visible
28 Dec 5.4 19:23:26 10° NW 19:29:09 33° N 19:29:09 33° N visible
28 Dec 6.8 21:11:02 10° NW 21:11:50 13° NW 21:11:50 13° NW visible
29 Dec 5.8 17:32:26 10° NW 17:38:25 22° N 17:43:57 12° NE visible
29 Dec 5.2 19:20:25 10° NW 19:26:38 38° N 19:26:38 38° N visible
29 Dec 6.7 21:08:06 10° NW 21:09:19 15° NW 21:09:19 15° NW visible
